Location: Omex
(43.0833°N, 0.0833°W)
Time: 01:59:33
(UTC+00:00)

Daily predictions for brighter satellites

Satellite Brightness Start Highest point End
(mag) Time Altitude Azimuth Time Altitude Azimuth Time Altitude Azimuth
Resurs 1-4 Rocket 4.4 01:50:37 10° N 01:51:57 18° N 01:51:57 18° N
CZ-2D R/B 4.4 01:53:50 10° N 01:55:14 19° N 01:55:14 19° N
SJ 16-02 4.5 02:02:53 10° NNE 02:02:59 10° NNE 02:02:59 10° NNE
Lacrosse 5 4.1 02:13:50 22° NNE 02:13:50 22° NNE 02:15:42 10° NE
ARIANE 5 R/B 4.1 02:22:19 10° NNE 02:25:30 31° ENE 02:25:30 31° ENE
NOSS 3-3 (A) 4.5 02:34:42 53° ENE 02:34:42 53° ENE 02:39:56 10° NE
USA 267 3.6 02:28:17 10° NE 02:34:08 58° ESE 02:34:08 58° ESE
ADEOS II 3.4 02:42:31 10° N 02:45:20 32° N 02:45:20 32° N
ATLAS 2AS CENTAUR R/B 4.4 02:42:27 10° NNW 02:49:04 31° NE 02:55:14 10° E
IDEFIX/ARIANE 42P 3.3 02:46:27 10° NNE 02:51:13 51° E 02:51:13 51° E
BREEZE-M DEB (TANK) 4.2 02:51:06 62° S 02:51:56 67° SE 03:12:07 10° ENE
Cosmos 1697 Rocket 4.1 02:56:36 27° NNW 02:56:36 27° NNW 02:59:46 10° N
Cosmos 1980 Rocket 3.0 03:02:24 43° NNW 03:02:24 43° NNW 03:06:32 10° NNE
Cosmos 2263 Rocket 2.3 03:00:13 10° NNW 03:05:54 75° ENE 03:11:34 10° SSE
USA 234 4.0 03:02:59 10° ESE 03:09:13 50° NNE 03:15:29 10° NW
Cosmos 2322 Rocket 3.1 03:08:23 37° SE 03:09:49 44° ESE 03:15:12 10° NE
Cosmos 1666 4.4 03:13:54 10° NNE 03:17:20 31° ENE 03:18:11 28° ESE
CZ-2D R/B 4.5 03:14:43 10° NNE 03:17:38 43° NNE 03:17:38 43° NNE
Cosmos 1812 4.3 03:21:35 32° NNE 03:21:35 32° NNE 03:23:46 10° NNE
SL-16 R/B 2.4 03:20:04 56° SSE 03:21:03 68° ESE 03:26:42 10° NNE
CZ-3B R/B 3.7 03:21:32 25° NNW 03:22:00 26° N 03:28:25 10° NE
Cosmos 1934 Rocket 4.2 03:16:04 10° NNW 03:20:55 52° NW 03:20:55 52° NW
Cosmos 1238 Rocket 4.1 03:24:22 10° NNW 03:30:02 52° WNW 03:30:02 52° WNW
Spot 4 Rocket 3.8 03:28:55 10° N 03:34:04 74° WNW 03:34:17 72° W
Cosmos 1898 Rocket 3.6 03:29:16 10° NNW 03:34:32 76° ENE 03:39:50 10° SSE
CZ-2C R/B 3.7 03:29:47 10° NNE 03:34:40 41° E 03:39:33 10° SSE
ASTEX 1 4.0 03:34:47 10° N 03:38:38 42° NW 03:38:38 42° NW
Cosmos 1869 Rocket 4.2 03:37:49 10° NNW 03:40:47 42° NNW 03:40:47 42° NNW
MSX 3.7 03:37:51 10° NNE 03:43:39 81° WNW 03:45:54 39° SSW
Landsat 5 3.7 03:41:47 10° SSE 03:46:17 80° ENE 03:50:45 10° N
IRIDIUM 104 4.2 03:41:21 10° N 03:46:36 85° W 03:50:25 19° S
Cosmos 2228 Rocket 4.2 03:48:02 31° NW 03:48:02 31° NW 03:50:47 10° N
PSLV R/B 4.1 03:44:21 10° NNE 03:48:28 53° E 03:51:00 22° S
Meteor 1-5 Rocket 4.1 03:48:08 10° NNW 03:53:22 57° W 03:56:00 29° SSW
CZ-4C R/B 3.9 03:55:01 38° NNW 03:55:01 38° NNW 03:57:19 10° NNW
Cosmos 1153 Rocket 4.4 03:48:05 10° N 03:54:29 82° W 04:00:46 10° S
Cosmos 1605 Rocket 4.1 03:48:33 10° NNW 03:54:45 53° W 03:58:55 21° SSW
Lacrosse 5 3.7 03:53:01 16° NW 03:54:49 19° NNW 03:58:27 10° NNE
Gbstr 26 Del rocket 4.3 03:49:31 21° WNW 03:55:12 68° SW 04:02:21 10° SE
Cosmos 1937 Rocket 3.4 03:50:27 10° NNW 03:55:37 84° ENE 04:00:46 10° SSE
IRIDIUM 114 4.2 03:50:32 10° N 03:55:44 70° W 03:59:31 19° S
H-2A R/B 2.0 03:52:27 10° SSE 03:56:51 83° WSW 04:01:21 10° NNW
ERBS 4.2 03:58:34 20° NNW 03:58:34 20° NNW 04:00:41 10° NNE
Meteor 1-10 Rocket 4.3 03:56:19 38° SW 03:58:22 59° WNW 04:04:12 10° N
X-37B 2.0 03:59:50 30° SSE 03:59:50 30° SSE 04:01:45 10° SE
Cosmos 841 Rocket 3.7 03:56:29 20° S 04:00:08 71° ESE 04:05:23 10° NNE
FALCON 9 DEB 3.7 04:01:05 45° NNW 04:01:05 45° NNW 04:04:13 10° NE
CSL-04 DEB 4.4 03:56:42 10° S 04:01:01 76° WSW 04:05:24 10° NNW
ERS-2 2.6 03:58:31 10° SSE 04:02:07 60° ENE 04:05:44 10° N
USA 32 3.9 03:58:13 10° N 04:03:29 86° W 04:08:45 10° S
Cosmos 1814 Rocket 4.5 03:59:35 12° S 04:04:22 61° ESE 04:09:35 10° NNE
SL-4 R/B 2.4 04:03:35 46° W 04:04:43 61° NNW 04:09:27 10° NE
IRIDIUM 103 4.3 03:59:44 10° N 04:04:51 57° W 04:08:38 18° SSW
ARIANE 5 R/B 3.6 04:01:48 10° N 04:05:49 26° WNW 04:05:49 26° WNW
Cosmos 1763 Rocket 3.6 04:04:26 39° WSW 04:06:05 54° WNW 04:11:18 10° NNE
Cosmos 2333 Rocket 4.2 04:02:28 10° SSE 04:07:17 28° ESE 04:12:06 10° NE
CZ-2C R/B 3.4 04:04:53 10° N 04:08:05 38° WNW 04:08:05 38° WNW
NOSS 3-4 (A) 3.9 04:09:53 10° NW 04:16:59 89° SW 04:24:51 10° SSE
NOSS 3-4 (C) 3.9 04:09:58 10° NW 04:17:06 89° SW 04:24:57 10° SSE
USA 267 3.7 04:11:26 10° NE 04:17:40 48° NNW 04:21:28 23° W
CZ-4B R/B 2.1 04:18:47 10° SSE 04:21:53 52° ENE 04:25:05 10° N
Cosmos 540 Rocket 3.4 04:20:36 17° SSW 04:24:33 72° WNW 04:29:45 10° NNE
ADEOS Rocket 3.1 04:19:23 10° SSE 04:26:08 84° WSW 04:32:13 10° NNW
ADEOS 3.9 04:20:56 10° NNE 04:26:09 66° ESE 04:31:19 10° S
IDEFIX/ARIANE 42P 3.8 04:26:50 10° NNW 04:30:49 22° WNW 04:32:01 21° W
PAYLOAD A 4.0 04:27:00 10° N 04:31:33 50° WNW 04:35:28 14° SW
Cosmos 1727 Rocket 4.4 04:26:59 15° SW 04:31:56 43° WNW 04:37:55 10° N
Cosmos 2100 Rocket 4.0 04:27:39 10° NNW 04:33:59 65° W 04:40:15 10° S
Cosmos 2360 Rocket 2.1 04:29:26 12° SSW 04:34:42 72° WNW 04:40:23 10° NNE
Cosmos 1570 Rocket 4.1 04:31:43 14° SW 04:36:15 59° WNW 04:41:33 10° NNE
FENGYUN 3A 4.1 04:31:57 10° NNE 04:37:20 66° ESE 04:42:43 10° S
deb Chang Zheng 4 3.6 04:34:26 10° NNE 04:38:44 84° ESE 04:42:59 10° SSW
SAR-Lupe-4 3.8 04:35:27 10° SSE 04:39:00 74° ENE 04:42:36 10° N
ATLAS 2AS CENTAUR R/B 2.7 04:33:22 10° NW 04:40:48 77° WSW 04:47:35 10° SSE
Cosmos 1459 Rocket 3.9 04:34:56 10° NNW 04:40:55 62° W 04:46:51 10° S
Cosmos 1802 Rocket 3.9 04:36:47 10° NNW 04:42:59 74° W 04:49:15 10° S
Cosmos 1484 Rocket 3.0 04:39:54 10° NNE 04:43:55 79° E 04:47:56 10° S
Cosmos 44 Rocket 3.6 04:42:19 18° WSW 04:45:31 47° NW 04:50:14 10° NNE
Cosmos 1908 Rocket 4.0 04:41:51 10° N 04:46:19 67° E 04:50:45 10° SSE
Cosmos 1980 Rocket 4.2 04:45:01 10° NW 04:46:20 11° NW 04:47:39 10° NNW
Cosmos 1703 Rocket 4.4 04:42:26 10° S 04:46:38 53° E 04:50:53 10° NNE
Cosmos 2263 Rocket 3.6 04:45:50 10° WNW 04:49:47 16° WSW 04:52:24 10° SW
Okean 1 3.3 04:45:27 10° S 04:49:29 88° W 04:53:33 10° N
Meteor 1-11 Rocket 4.5 04:45:44 10° NNW 04:50:35 29° W 04:55:22 10° SSW
Okean 1-7 3.8 04:47:44 10° S 04:51:52 54° E 04:56:01 10° NNE
USA 234 3.3 04:45:45 10° SSE 04:52:09 58° SW 04:58:36 10° NW
Cosmos 1666 4.2 04:50:09 10° NW 04:52:38 17° W 04:52:52 17° W
Cosmos 1515 3.9 04:48:57 10° S 04:52:43 75° E 04:56:31 10° NNE
Cosmos 2123 Rocket 4.0 04:47:15 10° S 04:53:30 82° W 04:59:50 10° N
Cosmos 2322 Rocket 3.1 04:50:14 15° WSW 04:54:01 30° NW 04:59:01 10° N
Cosmos 1844 Rocket 2.6 04:48:50 10° NNW 04:54:27 70° WSW 05:00:04 10° SSE
BREEZE M DEB (TANK) 4.1 04:45:11 10° WNW 04:54:30 33° WSW 04:58:06 10° S
Cosmos 2278 Rocket 4.3 04:51:38 10° N 04:56:27 28° NE 05:01:16 10° ESE
Meteor 1-31 Rocket 2.7 04:52:36 10° NNE 04:56:28 89° ESE 05:00:19 10° SSW
SAR-Lupe-1 4.0 04:54:28 10° S 04:58:01 67° WSW 05:01:36 10° NNW
Cosmos 1844 3.6 04:54:26 10° NNW 05:00:01 77° WSW 05:05:33 10° SSE
Cosmos 1437 Rocket 2.8 04:56:34 10° SSW 05:00:15 52° WNW 05:04:03 10° N
USA 276 2.5 04:57:49 10° WNW 05:01:01 65° NNE 05:04:13 10° ESE
SL-16 R/B 3.6 05:01:59 12° W 05:05:41 21° NW 05:09:59 10° N
Cosmos 1536 4.2 05:02:58 10° NW 05:05:50 19° W 05:08:40 10° SW
Meteor 2-9 Rocket 4.3 05:00:42 10° N 05:06:12 81° E 05:11:33 10° SSE
CZ-4B R/B 2.9 05:05:35 10° NNE 05:09:12 70° ESE 05:12:45 10° S
Cosmos 372 Rocket 4.2 05:04:50 10° NNW 05:09:42 44° WSW 05:14:31 10° S
Cosmos 1733 Rocket 4.0 05:06:12 10° NW 05:09:44 25° W 05:13:15 10° SW
CZ-2C R/B 3.5 05:08:24 10° N 05:12:40 27° WNW 05:16:56 10° WSW
CZ-4B R/B 4.2 05:08:43 10° N 05:13:04 61° WNW 05:17:28 10° SSW
Cosmos 2242 Rocket 3.6 05:09:44 10° SSW 05:14:03 57° W 05:18:25 10° N
Cosmos 1689 Rocket 2.0 05:11:50 10° S 05:14:46 67° WSW 05:17:45 10° NNW
Intercosmos 25 3.7 05:11:40 10° SW 05:15:11 33° W 05:18:10 10° NNW
SKYMED 2 3.6 05:12:35 10° SSE 05:16:55 89° W 05:21:17 10° NNW
ALOS 2.5 05:12:44 10° N 05:17:16 51° WNW 05:21:46 10° SSW
Cosmos 2219 Rocket 2.2 05:17:33 10° SSW 05:23:13 80° WNW 05:28:57 10° NNE
Cosmos 2285 Rocket 4.3 05:17:13 10° NNW 05:23:41 78° ENE 05:30:07 10° SSE
Meteor 2-4 Rocket 3.9 05:19:32 10° S 05:25:00 79° E 05:30:23 10° NNE
Cosmos 2298 Rocket 4.3 05:21:29 10° NNW 05:26:34 48° WSW 05:31:37 10° S
CZ-4C R/B 3.2 05:21:30 10° NW 05:28:52 83° NE 05:37:16 10° SE
